Tracking 19279 objects as of 14-Nov-2018
HD Live streaming from Space Station
objects crossing your sky now

NAVSTAR 27 (USA 84)

Track NAVSTAR 27 (USA 84) now!
NAVSTAR 27 (USA 84) is classified as:


NORAD ID: 22108
Int'l Code: 1992-058A
Perigee: 21,368.5 km
Apogee: 21,437.3 km
Inclination: 55.2 °
Period: 767.7 minutes
Semi major axis: 27773 km
RCS: 3.0849 m2 (large)
Launch date: September 9, 1992
Source: United States (US)
Launch site: AIR FORCE EASTERN TEST RANGE (AFETR)
aabbcc
Your satellite tracking list
Your tracking list is empty




NASA's NSSDC Master Catalog

Two Line Element Set (TLE):
1 22108U 92058A   18316.28795976 -.00000020  00000-0  00000+0 0  9991
2 22108  55.1696 261.7742 0012370 346.4119  13.5505  1.87563208190983
Source of the keplerian elements: AFSPC